| time (UTC) | temp F | wind direction | speed MPH | gust MPH | rain 1hr in | rain 24hr in | rain mn in | humidity % | barometer mb |
| 20260505054524 | 52 | 48 | 7.0 | 27.0 | 0.00 | 0.00 | 0.00 | 40 | 1012.2 |
| 20260505053028 | 52 | 24 | 11.0 | 21.0 | 0.00 | 0.00 | 0.00 | 40 | 1011.9 |
| 20260505051514 | 53 | 5 | 5.0 | 17.0 | 0.00 | 0.00 | 0.00 | 39 | 1011.5 |
| 20260505041536 | 54 | 4 | 4.0 | 9.0 | 0.00 | 0.00 | 0.00 | 38 | 1011.1 |
| 20260505040022 | 53 | 16 | 1.0 | 9.0 | 0.00 | 0.00 | 0.00 | 45 | 1010.8 |
| 20260505034521 | 52 | 13 | 4.0 | 7.0 | 0.00 | 0.00 | 0.00 | 47 | 1010.7 |
| 20260505033026 | 52 | 25 | 2.0 | 9.0 | 0.00 | 0.00 | 0.00 | 47 | 1010.4 |
| 20260505031526 | 52 | 39 | 3.0 | 6.0 | 0.00 | 0.00 | 0.00 | 48 | 1010.1 |
| 20260505030029 | 52 | 46 | 4.0 | 5.0 | 0.00 | 0.00 | 0.00 | 48 | 1010.0 |
| 20260505024526 | 54 | 57 | 1.0 | 5.0 | 0.00 | 0.00 | 0.00 | 45 | 1009.8 |
| 20260505023032 | 55 | 57 | 1.0 | 4.0 | 0.00 | 0.00 | 0.00 | 44 | 1009.6 |
| 20260505021525 | 56 | 25 | 2.0 | 4.0 | 0.00 | 0.00 | 0.00 | 41 | 1009.7 |
| 20260505020034 | 57 | 348 | 1.0 | 5.0 | 0.00 | 0.00 | 0.00 | 41 | 1009.6 |
| 20260505014535 | 58 | 292 | 1.0 | 4.0 | 0.00 | 0.00 | 0.00 | 39 | 1009.7 |
| 20260505013026 | 59 | 259 | 4.0 | 10.0 | 0.00 | 0.00 | 0.00 | 37 | 1009.8 |
| 20260505011533 | 57 | 329 | 6.0 | 16.0 | 0.00 | 0.00 | 0.00 | 39 | 1010.0 |
| 20260505010026 | 58 | 329 | 6.0 | 15.0 | 0.00 | 0.00 | 0.00 | 39 | 1010.1 |
| 20260505004540 | 60 | 308 | 3.0 | 9.0 | 0.00 | 0.00 | 0.00 | 33 | 1009.9 |
| 20260505003024 | 62 | 13 | 5.0 | 11.0 | 0.00 | 0.00 | 0.00 | 31 | 1009.4 |
| 20260505001524 | 64 | 311 | 7.0 | 11.0 | 0.00 | 0.00 | 0.00 | 29 | 1009.5 |
| 20260505000007 | 64 | 285 | 6.0 | 11.0 | 0.00 | 0.00 | 0.00 | 28 | 1009.3 |
| 20260504234510 | 65 | 289 | 6.0 | 10.0 | 0.00 | 0.00 | 0.00 | 26 | 1009.2 |
| 20260504233016 | 64 | 298 | 7.0 | 16.0 | 0.00 | 0.00 | 0.00 | 27 | 1009.3 |
| 20260504231520 | 64 | 9 | 7.0 | 16.0 | 0.00 | 0.00 | 0.00 | 26 | 1009.3 |
| 20260504230024 | 65 | 319 | 6.0 | 13.0 | 0.00 | 0.00 | 0.00 | 26 | 1009.1 |
| 20260504224515 | 66 | 30 | 7.0 | 14.0 | 0.00 | 0.00 | 0.00 | 25 | 1009.1 |
| 20260504223016 | 63 | 342 | 7.0 | 16.0 | 0.00 | 0.00 | 0.00 | 29 | 1009.5 |
| 20260504221521 | 62 | 311 | 9.0 | 20.0 | 0.00 | 0.00 | 0.00 | 30 | 1010.1 |
| 20260504220022 | 61 | 302 | 5.0 | 15.0 | 0.00 | 0.00 | 0.00 | 28 | 1009.8 |
| 20260504214507 | 58 | 64 | 12.0 | 19.0 | 0.00 | 0.00 | 0.00 | 36 | 1010.4 |
| 20260504213018 | 58 | 316 | 9.0 | 18.0 | 0.00 | 0.00 | 0.00 | 37 | 1011.0 |
| 20260504211529 | 63 | 304 | 7.0 | 12.0 | 0.00 | 0.00 | 0.00 | 29 | 1010.7 |
| 20260504210020 | 60 | 330 | 6.0 | 18.0 | 0.00 | 0.00 | 0.00 | 29 | 1010.4 |
| 20260504204524 | 59 | 304 | 11.0 | 21.0 | 0.00 | 0.00 | 0.00 | 34 | 1010.9 |
| 20260504203006 | 60 | 27 | 10.0 | 25.0 | 0.00 | 0.00 | 0.00 | 31 | 1010.9 |
| 20260504201510 | 63 | 318 | 4.0 | 12.0 | 0.00 | 0.00 | 0.00 | 24 | 1010.1 |
| 20260504200018 | 64 | 271 | 1.0 | 5.0 | 0.00 | 0.00 | 0.00 | 25 | 1010.1 |
| 20260504194520 | 62 | 113 | 1.0 | 8.0 | 0.00 | 0.00 | 0.00 | 27 | 1010.5 |
| 20260504193023 | 62 | 285 | 2.0 | 6.0 | 0.00 | 0.00 | 0.00 | 27 | 1010.8 |
| 20260504191529 | 62 | 297 | 1.0 | 4.0 | 0.00 | 0.00 | 0.00 | 28 | 1010.9 |
| 20260504190014 | 62 | 319 | 2.0 | 4.0 | 0.00 | 0.00 | 0.00 | 31 | 1011.1 |
| 20260504184528 | 62 | 292 | 1.0 | 6.0 | 0.00 | 0.00 | 0.00 | 31 | 1011.1 |
| 20260504183022 | 61 | 342 | 2.0 | 4.0 | 0.00 | 0.00 | 0.00 | 30 | 1011.4 |
| 20260504181525 | 62 | 146 | 0.0 | 4.0 | 0.00 | 0.00 | 0.00 | 28 | 1011.6 |
| 20260504180028 | 61 | 167 | 2.0 | 4.0 | 0.00 | 0.00 | 0.00 | 31 | 1011.8 |
| 20260504174516 | 60 | 198 | 0.0 | 3.0 | 0.00 | 0.00 | 0.00 | 34 | 1012.0 |
| 20260504173021 | 59 | 59 | 0.0 | 4.0 | 0.00 | 0.00 | 0.00 | 34 | 1012.1 |
| 20260504171506 | 58 | 75 | 1.0 | 4.0 | 0.00 | 0.00 | 0.00 | 37 | 1012.3 |
| 20260504081513 | 37 | 122 | 0.0 | 1.0 | 0.00 | 0.00 | 0.00 | 56 | 1014.0 |